Date String (YYYY-MM-DD hh:mm:ss) UTC,Instrument flags,Ambient pressure (hPa),Sample flow (lpm),Bypass flow (lpm),Sample temperature (°C),Ambient temperature (°C),ASC tube jacket temperature (°C),LED temperature (°C),Box temperature (°C),Sample RH (%),Span deviation,Mass concentration (μg/m³),Mass concentration (μg/m³),Mass concentration (μg/m³)
DateTimeUTC,F1_M11,P_M11,Q1_M11,Q2_M11,T1_M11,T2_M11,T3_M11,T4_M11,T5_M11,U1_M11,ZSPAN_M11,X0_M11,X2_M11,X1_M11
2022-12-07 12:00:00,,0826.5,5.00,0.00,22.0,20.4,00.0,30.9,23.8,09.7,0000.0,0006.51,0002.58,0001.94
2022-12-07 12:01:00,,0826.5,5.00,0.00,21.9,20.4,00.0,30.9,23.8,09.7,0000.0,0006.22,0002.57,0001.94
2022-12-07 12:02:00,,0826.5,5.00,0.00,21.9,20.4,00.0,30.9,23.7,09.8,0000.0,0006.98,0002.60,0001.95
2022-12-07 12:03:00,,0826.5,5.01,0.00,21.9,20.5,00.0,30.9,23.7,09.8,0000.0,0006.85,0002.55,0001.93
2022-12-07 12:04:00,,0826.5,5.01,0.00,22.0,21.2,00.0,30.8,23.9,09.7,0000.0,0006.57,0002.50,0001.90
2022-12-07 12:05:00,,0826.5,4.99,0.00,22.1,22.0,00.0,30.8,24.1,09.7,0000.0,0006.10,0002.47,0001.89
2022-12-07 12:06:00,,0826.5,4.99,0.00,22.1,22.0,00.0,30.9,24.2,09.7,0000.0,0006.21,0002.47,0001.88
2022-12-07 12:07:00,,0826.4,5.01,0.00,22.1,21.7,00.0,30.9,24.1,09.7,0000.0,0006.70,0002.48,0001.88
2022-12-07 12:08:00,,0826.3,5.01,0.00,22.2,21.5,00.0,31.0,24.1,09.7,0000.0,0006.99,0002.53,0001.88
2022-12-07 12:09:00,,0826.4,5.00,0.00,22.1,21.3,00.0,31.0,24.0,09.7,0000.0,0006.85,0002.55,0001.89
2022-12-07 12:10:00,,0826.4,5.00,0.00,22.1,21.1,00.0,31.0,24.0,09.7,0000.0,0007.29,0002.54,0001.90
2022-12-07 12:11:00,,0826.4,5.00,0.00,22.1,21.1,00.0,31.0,24.0,09.7,0000.0,0007.19,0002.52,0001.89
2022-12-07 12:12:00,,0826.4,5.00,0.00,22.1,21.0,00.0,31.0,23.9,09.7,0000.0,0007.07,0002.50,0001.89
2022-12-07 12:13:00,,0826.5,5.00,0.00,22.1,20.9,00.0,31.0,23.9,09.7,0000.0,0006.02,0002.49,0001.87
2022-12-07 12:14:00,,0826.5,5.01,0.00,22.1,20.8,00.0,31.0,23.9,09.7,0000.0,0005.91,0002.51,0001.87
2022-12-07 12:15:00,,0826.5,5.01,0.00,22.1,20.7,00.0,31.0,23.9,09.7,0000.0,0006.07,0002.57,0001.88
2022-12-07 12:16:00,,0826.5,5.00,0.00,22.0,20.6,00.0,31.0,23.9,09.7,0000.0,0006.16,0002.59,0001.89
2022-12-07 12:17:00,,0826.5,4.99,0.00,22.0,20.6,00.0,31.0,23.8,09.8,0000.0,0006.15,0002.60,0001.89
2022-12-07 12:18:00,,0826.5,5.00,0.00,22.0,20.5,00.0,31.0,23.8,09.7,0000.0,0005.79,0002.60,0001.89
2022-12-07 12:19:00,,0826.5,4.99,0.00,22.0,20.5,00.0,31.0,23.8,09.8,0000.0,0005.58,0002.55,0001.89
2022-12-07 12:20:00,,0826.5,5.00,0.00,22.0,20.4,00.0,31.0,23.7,09.8,0000.0,0005.84,0002.56,0001.88
2022-12-07 12:21:00,,0826.5,5.00,0.00,21.9,20.3,00.0,31.0,23.7,09.8,0000.0,0005.15,0002.57,0001.86
2022-12-07 12:22:00,,0826.5,5.00,0.00,21.9,20.3,00.0,30.9,23.6,09.8,0000.0,0005.40,0002.58,0001.85
2022-12-07 12:23:00,,0826.5,5.00,0.00,21.9,20.3,00.0,30.9,23.6,09.8,0000.0,0005.51,0002.56,0001.82
2022-12-07 12:24:00,,0826.5,5.01,0.00,21.9,20.9,00.0,30.8,23.8,09.7,0000.0,0005.44,0002.53,0001.81
2022-12-07 12:25:00,,0826.4,5.00,0.00,22.0,21.8,00.0,30.8,24.0,09.7,0000.0,0005.38,0002.52,0001.80
2022-12-07 12:26:00,,0826.5,4.99,0.00,22.1,22.0,00.0,30.8,24.1,09.7,0000.0,0005.41,0002.49,0001.78
2022-12-07 12:27:00,,0826.5,5.00,0.00,22.1,21.6,00.0,30.9,24.0,09.6,0000.0,0005.29,0002.45,0001.76
2022-12-07 12:28:00,,0826.5,5.01,0.00,22.1,21.4,00.0,30.9,24.0,09.6,0000.0,0005.28,0002.41,0001.73
2022-12-07 12:29:00,,0826.4,5.00,0.00,22.1,21.2,00.0,31.0,23.9,09.6,0000.0,0005.27,0002.36,0001.69
2022-12-07 12:30:00,,0826.5,5.00,0.00,22.0,21.0,00.0,31.0,23.9,09.7,0000.0,0004.95,0002.38,0001.68
2022-12-07 12:31:00,,0826.5,5.00,0.00,22.0,20.8,00.0,31.0,23.8,09.7,0000.0,0004.64,0002.32,0001.65
2022-12-07 12:32:00,,0826.5,4.99,0.00,22.0,20.7,00.0,31.0,23.8,09.7,0000.0,0004.61,0002.30,0001.64
2022-12-07 12:33:00,,0826.5,5.00,0.00,22.0,20.6,00.0,31.0,23.8,09.7,0000.0,0004.32,0002.26,0001.63
2022-12-07 12:34:00,,0826.5,5.01,0.00,21.9,20.5,00.0,31.0,23.7,09.7,0000.0,0004.28,0002.28,0001.62
2022-12-07 12:35:00,,0826.5,5.01,0.00,21.9,20.4,00.0,30.9,23.7,09.7,0000.0,0005.24,0002.26,0001.62
2022-12-07 12:36:00,,0826.5,5.00,0.00,21.9,20.4,00.0,30.9,23.7,09.7,0000.0,0005.32,0002.21,0001.63
2022-12-07 12:37:00,,0826.5,4.99,0.00,21.9,20.3,00.0,30.9,23.6,09.7,0000.0,0005.19,0002.20,0001.64
2022-12-07 12:38:00,,0826.5,4.99,0.00,21.9,20.3,00.0,30.9,23.6,09.7,0000.0,0005.31,0002.25,0001.65
2022-12-07 12:39:00,,0826.5,5.00,0.00,21.8,20.3,00.0,30.9,23.5,09.7,0000.0,0005.20,0002.25,0001.67
2022-12-07 12:40:00,,0826.5,5.01,0.00,21.9,20.9,00.0,30.8,23.7,09.8,0000.0,0005.04,0002.26,0001.69
2022-12-07 12:41:00,,0826.5,5.00,0.00,22.0,21.8,00.0,30.8,23.9,09.7,0000.0,0004.88,0002.26,0001.69
2022-12-07 12:42:00,,0826.5,4.99,0.00,22.1,22.0,00.0,30.8,24.0,09.6,0000.0,0004.61,0002.24,0001.71
2022-12-07 12:43:00,,0826.5,5.00,0.00,22.1,21.6,00.0,30.9,24.0,09.6,0000.0,0004.48,0002.20,0001.70
2022-12-07 12:44:00,,0826.5,5.00,0.00,22.0,21.3,00.0,30.9,23.9,09.6,0000.0,0005.61,0002.20,0001.71
2022-12-07 12:45:00,,0826.5,5.00,0.00,22.0,21.1,00.0,30.9,23.9,09.5,0000.0,0005.81,0002.22,0001.72
2022-12-07 12:46:00,,0826.5,5.00,0.00,22.0,20.9,00.0,30.9,23.8,09.5,0000.0,0005.40,0002.26,0001.73
2022-12-07 12:47:00,,0826.5,5.00,0.00,22.0,20.7,00.0,30.9,23.8,09.5,0000.0,0005.10,0002.28,0001.73
2022-12-07 12:48:00,,0826.5,5.00,0.00,22.0,20.6,00.0,30.9,23.7,09.6,0000.0,0005.24,0002.33,0001.73
2022-12-07 12:49:00,,0826.5,5.00,0.00,21.9,20.5,00.0,30.9,23.6,09.6,0000.0,0005.86,0002.26,0001.72
2022-12-07 12:50:00,,0826.5,5.00,0.00,21.9,20.5,00.0,30.9,23.6,09.6,0000.0,0006.50,0002.23,0001.71
2022-12-07 12:51:00,,0826.5,5.00,0.00,21.9,20.4,00.0,30.9,23.6,09.6,0000.0,0006.45,0002.19,0001.70
2022-12-07 12:52:00,,0826.5,5.00,0.00,21.9,20.3,00.0,30.9,23.6,09.6,0000.0,0006.39,0002.15,0001.69
2022-12-07 12:53:00,,0826.5,5.01,0.00,21.8,20.2,00.0,30.9,23.6,09.6,0000.0,0006.54,0002.17,0001.69
2022-12-07 12:54:00,,0826.5,5.00,0.00,21.8,20.2,00.0,30.9,23.5,09.6,0000.0,0006.51,0002.15,0001.68
2022-12-07 12:55:00,,0826.5,5.01,0.00,21.8,20.9,00.0,30.8,23.7,09.6,0000.0,0005.84,0002.13,0001.67
2022-12-07 12:56:00,,0826.5,5.00,0.00,21.9,21.8,00.0,30.8,23.9,09.5,0000.0,0005.28,0002.11,0001.65
2022-12-07 12:57:00,,0826.5,4.99,0.00,22.0,21.9,00.0,30.8,24.0,09.4,0000.0,0005.46,0002.10,0001.64
2022-12-07 12:58:00,,0826.5,4.99,0.00,22.0,21.5,00.0,30.9,24.0,09.4,0000.0,0005.37,0002.08,0001.62
2022-12-07 12:59:00,,0826.5,5.01,0.00,22.0,21.3,00.0,30.9,23.9,09.7,0000.0,0005.37,0002.05,0001.61
